When you browse on this site, cookies collect data to enhance your experience and personalize the content and advertising you see.
Visit our Privacy Policy to learn more. By continuing to use the site, you agree to this use of cookies and data.
  • En España
  • Lista de países
  • Para 7 días
  • Temperatura del agua
  • El tiempo en el mapa
  • Informadores
  • user-avatar
    Iniciar sesión

    Tiempo cada hora Taba

    Hoy, 29 Febrero, Sábado

    Tiempo Temperatura Precipitaciones Viento Presión Humedad
    00:00 +15°C° 0 mm 2 mps 691 mmHg 43%
    01:00 +14°C° 0 mm 2 mps 691 mmHg 45%
    02:00 +14°C° 0 mm 2 mps 691 mmHg 47%
    03:00 +13°C° 0 mm 2 mps 691 mmHg 49%
    04:00 +12°C° 0 mm 3 mps 691 mmHg 50%
    05:00 +11°C° 0 mm 3 mps 691 mmHg 52%
    06:00 +11°C° 0 mm 4 mps 691 mmHg 60%
    07:00 +11°C° 0 mm 4 mps 691 mmHg 67%
    08:00 +11°C° 0 mm 4 mps 691 mmHg 73%
    09:00 +12°C° 0 mm 4 mps 692 mmHg 63%
    10:00 +14°C° 0 mm 3 mps 692 mmHg 52%
    11:00 +17°C° 0 mm 3 mps 692 mmHg 42%
    12:00 +17°C° 0 mm 4 mps 692 mmHg 38%
    13:00 +17°C° 0 mm 5 mps 691 mmHg 34%
    14:00 +19°C° 0 mm 6 mps 691 mmHg 30%
    15:00 +17°C° 0 mm 6 mps 691 mmHg 30%
    16:00 +16°C° 0 mm 7 mps 691 mmHg 31%
    17:00 +15°C° 0 mm 7 mps 691 mmHg 32%
    18:00 +14°C° 0 mm 6 mps 691 mmHg 38%
    19:00 +13°C° 0 mm 6 mps 691 mmHg 44%
    20:00 +12°C° 0 mm 5 mps 691 mmHg 50%
    21:00 +12°C° 0 mm 5 mps 692 mmHg 54%
    22:00 +11°C° 0 mm 4 mps 692 mmHg 59%
    23:00 +11°C° 0 mm 4 mps 692 mmHg 63%

    Mañana, 1 Marzo, Domingo

    Tiempo Temperatura Precipitaciones Viento Presión Humedad
    00:00 +9°C° 0 mm 5 mps 692 mmHg 66%
    01:00 +9°C° 0 mm 6 mps 692 mmHg 68%
    02:00 +8°C° 0 mm 6 mps 691 mmHg 71%
    03:00 +8°C° 0 mm 6 mps 692 mmHg 73%
    04:00 +6°C° 0 mm 7 mps 692 mmHg 75%
    05:00 +5°C° 0 mm 7 mps 692 mmHg 78%
    06:00 +5°C° 0 mm 6 mps 692 mmHg 74%
    07:00 +5°C° 0 mm 6 mps 693 mmHg 71%
    08:00 +6°C° 0 mm 5 mps 693 mmHg 68%
    09:00 +7°C° 0 mm 5 mps 693 mmHg 62%
    10:00 +9°C° 0 mm 5 mps 694 mmHg 56%
    11:00 +10°C° 0 mm 5 mps 694 mmHg 51%
    12:00 +12°C° 0 mm 5 mps 694 mmHg 47%
    13:00 +13°C° 0 mm 5 mps 693 mmHg 44%
    14:00 +14°C° 0 mm 5 mps 693 mmHg 41%
    15:00 +14°C° 0 mm 5 mps 693 mmHg 42%
    16:00 +13°C° 0 mm 5 mps 693 mmHg 43%
    17:00 +13°C° 0 mm 5 mps 693 mmHg 44%
    18:00 +12°C° 0 mm 4 mps 694 mmHg 49%
    19:00 +12°C° 0 mm 4 mps 694 mmHg 54%
    20:00 +11°C° 0 mm 3 mps 695 mmHg 59%
    21:00 +10°C° 0 mm 3 mps 695 mmHg 63%
    22:00 +10°C° 0 mm 3 mps 695 mmHg 67%
    23:00 +9°C° 0 mm 2 mps 694 mmHg 71%

    Pasado mañana, 2 Marzo, Lunes

    Tiempo Temperatura Precipitaciones Viento Presión Humedad
    00:00 +9°C° 0 mm 2 mps 694 mmHg 72%
    01:00 +8°C° 0 mm 2 mps 694 mmHg 74%
    02:00 +9°C° 0 mm 1 mps 694 mmHg 76%
    03:00 +8°C° 0 mm 2 mps 694 mmHg 75%
    04:00 +7°C° 0 mm 2 mps 694 mmHg 75%
    05:00 +7°C° 0 mm 2 mps 694 mmHg 74%
    06:00 +8°C° 0 mm 2 mps 694 mmHg 72%
    07:00 +9°C° 0 mm 2 mps 694 mmHg 69%
    08:00 +9°C° 0 mm 2 mps 695 mmHg 67%
    09:00 +11°C° 0 mm 3 mps 695 mmHg 59%
    10:00 +13°C° 0 mm 3 mps 695 mmHg 50%
    11:00 +14°C° 0 mm 3 mps 695 mmHg 42%
    12:00 +16°C° 0 mm 3 mps 695 mmHg 39%
    13:00 +17°C° 0 mm 4 mps 694 mmHg 36%
    14:00 +18°C° 0 mm 4 mps 694 mmHg 33%
    15:00 +18°C° 0 mm 4 mps 694 mmHg 35%
    16:00 +16°C° 0 mm 5 mps 694 mmHg 37%
    17:00 +16°C° 0 mm 5 mps 694 mmHg 39%
    18:00 +15°C° 0 mm 4 mps 694 mmHg 43%
    19:00 +14°C° 0 mm 4 mps 694 mmHg 48%
    20:00 +12°C° 0 mm 3 mps 694 mmHg 53%
    21:00 +12°C° 0 mm 3 mps 694 mmHg 56%
    22:00 +12°C° 0 mm 2 mps 694 mmHg 58%
    23:00 +12°C° 0 mm 2 mps 694 mmHg 61%

    3 Marzo, Martes

    Tiempo Temperatura Precipitaciones Viento Presión Humedad
    00:00 +10°C° 0 mm 2 mps 694 mmHg 62%
    01:00 +10°C° 0 mm 2 mps 694 mmHg 63%
    02:00 +9°C° 0 mm 2 mps 694 mmHg 65%
    03:00 +9°C° 0 mm 2 mps 694 mmHg 65%
    04:00 +9°C° 0 mm 2 mps 693 mmHg 64%
    05:00 +8°C° 0 mm 2 mps 693 mmHg 64%
    06:00 +10°C° 0 mm 2 mps 694 mmHg 59%
    07:00 +12°C° 0 mm 2 mps 694 mmHg 53%
    08:00 +13°C° 0 mm 2 mps 695 mmHg 47%
    09:00 +15°C° 0 mm 2 mps 695 mmHg 40%
    10:00 +18°C° 0 mm 1 mps 695 mmHg 33%
    11:00 +20°C° 0 mm 1 mps 695 mmHg 26%
    12:00 +21°C° 0 mm 1 mps 694 mmHg 23%
    13:00 +22°C° 0 mm 1 mps 694 mmHg 20%
    14:00 +23°C° 0 mm 1 mps 694 mmHg 17%
    15:00 +23°C° 0 mm 2 mps 694 mmHg 19%
    16:00 +23°C° 0 mm 2 mps 694 mmHg 21%
    17:00 +21°C° 0 mm 3 mps 694 mmHg 24%
    18:00 +20°C° 0 mm 2 mps 693 mmHg 29%
    19:00 +18°C° 0 mm 2 mps 693 mmHg 34%
    20:00 +16°C° 0 mm 1 mps 693 mmHg 39%
    21:00 +16°C° 0 mm 1 mps 693 mmHg 39%
    22:00 +15°C° 0 mm 1 mps 693 mmHg 38%
    23:00 +15°C° 0 mm 1 mps 693 mmHg 37%

    4 Marzo, Miércoles

    Tiempo Temperatura Precipitaciones Viento Presión Humedad
    00:00 +15°C° 0 mm 1 mps 693 mmHg 36%
    01:00 +14°C° 0 mm 1 mps 692 mmHg 35%
    02:00 +14°C° 0 mm 1 mps 692 mmHg 34%
    03:00 +14°C° 0 mm 1 mps 692 mmHg 34%
    04:00 +13°C° 0 mm 1 mps 692 mmHg 33%
    05:00 +12°C° 0 mm 0 mps 691 mmHg 33%
    06:00 +15°C° 0 mm 1 mps 692 mmHg 30%
    07:00 +16°C° 0 mm 1 mps 692 mmHg 27%
    08:00 +19°C° 0 mm 1 mps 693 mmHg 25%
    09:00 +21°C° 0 mm 1 mps 693 mmHg 21%
    10:00 +23°C° 0 mm 1 mps 693 mmHg 17%
    11:00 +24°C° 0 mm 1 mps 693 mmHg 13%
    12:00 +25°C° 0 mm 1 mps 693 mmHg 12%
    13:00 +26°C° 0 mm 1 mps 692 mmHg 10%
    14:00 +27°C° 0 mm 1 mps 692 mmHg 8%
    15:00 +26°C° 0 mm 1 mps 691 mmHg 10%
    16:00 +26°C° 0 mm 1 mps 691 mmHg 11%
    17:00 +25°C° 0 mm 1 mps 691 mmHg 12%
    18:00 +23°C° 0 mm 1 mps 691 mmHg 15%
    19:00 +20°C° 0 mm 0 mps 691 mmHg 18%
    20:00 +18°C° 0 mm 0 mps 691 mmHg 20%
    21:00 +17°C° 0 mm 0 mps 691 mmHg 21%
    22:00 +16°C° 0 mm 0 mps 691 mmHg 22%
    23:00 +16°C° 0 mm 0 mps 691 mmHg 23%

    5 Marzo, Jueves

    Tiempo Temperatura Precipitaciones Viento Presión Humedad
    00:00 +15°C° 0 mm 0 mps 690 mmHg 24%
    01:00 +15°C° 0 mm 0 mps 690 mmHg 24%
    02:00 +14°C° 0 mm 0 mps 689 mmHg 25%
    03:00 +14°C° 0 mm 0 mps 689 mmHg 24%
    04:00 +15°C° 0 mm 1 mps 689 mmHg 24%
    05:00 +14°C° 0 mm 1 mps 689 mmHg 24%
    06:00 +16°C° 0 mm 1 mps 689 mmHg 22%
    07:00 +18°C° 0 mm 1 mps 690 mmHg 20%
    08:00 +18°C° 0 mm 0 mps 690 mmHg 19%
    09:00 +22°C° 0 mm 1 mps 690 mmHg 16%
    10:00 +23°C° 0 mm 2 mps 691 mmHg 13%
    11:00 +25°C° 0 mm 3 mps 691 mmHg 11%
    12:00 +26°C° 0 mm 3 mps 691 mmHg 11%
    13:00 +26°C° 0 mm 4 mps 690 mmHg 11%
    14:00 +27°C° 0 mm 5 mps 690 mmHg 12%
    15:00 +26°C° 0 mm 5 mps 690 mmHg 13%
    16:00 +25°C° 0 mm 5 mps 690 mmHg 14%
    17:00 +23°C° 0 mm 5 mps 690 mmHg 15%
    18:00 +22°C° 0 mm 5 mps 690 mmHg 20%
    19:00 +20°C° 0 mm 6 mps 690 mmHg 26%
    20:00 +17°C° 0 mm 6 mps 691 mmHg 31%
    21:00 +16°C° 0 mm 5 mps 691 mmHg 37%
    22:00 +15°C° 0 mm 5 mps 691 mmHg 43%
    23:00 +14°C° 0 mm 4 mps 691 mmHg 50%
    Mostrar más